sat.trackr.live / text

‹ back to catalog

YAOGAN-7

NORAD 36110 · 2009-069A

PAYLOAD ACTIVE UNKNOWN

§ Identity

Operator
Country
PRC
Launch date
2009-12-09
Launch site
JSC
Launch vehicle
Mass (kg)
RCS (m²)
3.33

Purposes: earth_obs

External: N2YO · Heavens-Above · Gunter

§ Orbital elements

Epoch: 2026-09-20T00:01:39.373824Z

Period
97.42 min
Inclination
97.9909°
Eccentricity
0.0025949
Mean motion
14.78081374 rev/d
Perigee alt
617.2 km
Apogee alt
653.6 km
Semi-major
7,013.5 km
B*
4.0639e-5
RAAN
148.2105°
Arg perigee
93.1010°
Mean anomaly
267.3171°
Rev number
90,363

§ Raw data

YAOGAN-71 36110U 09069A   26263.00115016  .00000242  00000+0  40639-4 0  99912 36110  97.9909 148.2105 0025949  93.1010 267.3171 14.78081374903631

JSON: /api/v1/satellites/36110 · /tle

For live sub-satellite position, see the globe view (requires WebGL).

§ Visibility from observer

Set your observer location to see the next 7 days of passes ≥ 10°. The values pass through the URL so the page stays shareable.

No JS? Fill the form by hand. The geolocation button needs JavaScript.

§ Radio — SatNOGS DB

ModeDescriptionDownlinkUplink
FM S-band telemetry 2.217 GHz

1 transmitter · refreshed weekly from db.satnogs.org